weather.gov     
National Weather Service

Terminal Aerodrome Forecast
NWS Homepage
This page is being discontinued on March 12, 2014.
The same data is available at this site. Please update your bookmarks.
Thank you, and we apologize for the inconvenience.
Please send an email to SR-SRH.Webmaster@noaa.gov with any concerns.


Current Version
Previous Version:    01  02  03  04  05  06  07  08  09  10  11  12  13  14  15  16  17  18  19  20  21  22  23  24  25  26  27  28  29  30  
   31  32  33  34  35  36  37  
[Printable]
921
FTUS46 KPDT 251700
TAFPSC
TAF
KPSC 251739Z 2518/2618 VRB04KT 5SM BR SCT005 BKN110
      TEMPO 2518/2519 20010KT BKN005 BKN110
     FM252100 22012KT P6SM BKN100
     FM260100 20018G28KT P6SM -SHRA BKN070 OVC090
     FM260600 20020G32KT P6SM SCT070 BKN090 BKN150=


U.S. Dept. of Commerce
NOAA National Weather Service
1325 East West Highway
Silver Spring, MD 20910
E-mail: w-nws.webmaster@noaa.gov
Page last modified: May 16, 2007
NATIONAL WEATHER SERVICE: for Safety, for Work, for Fun - FOR LIFE